Home   Weather   Nanning   Past weeks

Flag for China Past Weather in Nanning, Guangxi, China — Yesterday and Last 2 Weeks

Now
86 °F

Clear.


Feels Like: 93 °F
Forecast: 77 / 92 °F
Wind: 1 mph from North

Location: Nanning Airport

Current Time: Aug 30, 2016 at 5:29:25 PM

Latest Report: Aug 30, 2016 at 5:00 PM


Visibility: 5 mi

Pressure: 29.71 "Hg

Humidity: 66%

Dew Point: 73 °F

Location of NanningLocation

Past Weather in Nanning — Graph

°F

Nanning Temperature Yesterday

Maximum temperature yesterday: 88 °F (at 2:00 PM)
Minimum temperature yesterday: 73 °F (at 1:00 AM)
Average temperature yesterday: 80 °F

High & Low Weather Summary for the Past Weeks

 TemperatureHumidityPressure
High99 °F (Aug 25, 4:00 PM)100% (Aug 17, 12:00 AM)29.86 "Hg (Aug 17, 12:00 AM)
Low73 °F (Aug 29, 1:00 AM)40% (Aug 29, 4:00 PM)29.24 "Hg (Aug 18, 4:00 PM)
Average83 °F79%29.62 "Hg
* Reported Aug 15 4:00 PM — Aug 30 4:00 PM, Nanning, Weather by CustomWeather, © 2016

Note: Actual official high and low records may vary slightly from our data, if they occured in-between our weather recording intervals... More about our weather records

Advertising

Nanning Weather History for the Previous 24 Hours

Scroll right to see more
 ConditionsComfort  
Time TempWeatherWind HumidityBarometerVisibility
4:00 PM
Tue, Aug 30
86 °FPassing clouds.1 mph62%29.71 "Hg5 mi
3:00 PM86 °FScattered clouds.3 mph62%29.74 "HgN/A
2:00 PM86 °FPassing clouds.1 mph62%29.77 "HgN/A
1:00 PM84 °FPartly sunny.3 mph66%29.77 "HgN/A
12:00 PM84 °FBroken clouds.1 mph66%29.80 "Hg4 mi
11:00 AM86 °FScattered clouds.1 mph62%29.80 "Hg4 mi
10:00 AM84 °FClear.3 mph66%29.83 "Hg4 mi
9:00 AM81 °FClear.3 mph74%29.80 "Hg4 mi
8:00 AM79 °FClear.1 mph79%29.80 "Hg4 mi
7:00 AM75 °FClear.1 mph89%29.77 "Hg4 mi
6:00 AM75 °FClear.1 mph89%29.77 "Hg4 mi
5:00 AM75 °FClear.3 mph89%29.77 "Hg4 mi
4:00 AM75 °FClear.1 mph89%29.77 "Hg4 mi
3:00 AM75 °FClear.1 mph89%29.77 "Hg4 mi
2:00 AM75 °FClear.1 mph83%29.77 "Hg4 mi
1:00 AM73 °FClear.1 mph89%29.77 "Hg10 mi
12:00 AM75 °FClear.1 mph83%29.80 "Hg10 mi
11:00 PM
Mon, Aug 29
77 °FClear.No wind79%29.80 "Hg10 mi
10:00 PM77 °FClear.1 mph79%29.77 "Hg10 mi
9:00 PM81 °FClear.1 mph74%29.74 "Hg10 mi
8:00 PM84 °FClear.1 mph51%29.74 "Hg10 mi
7:00 PM84 °FSunny.3 mph55%29.71 "Hg10 mi
6:00 PM86 °FPassing clouds.3 mph49%29.71 "HgN/A
5:00 PM88 °FPassing clouds.3 mph40%29.71 "HgN/A
Weather by CustomWeather, © 2016

See weather overviewHow to use our weather pages